This is the latest recevied weather packets stored in our database for station/object DH0DM-13. If no packets are shown the sender has not sent any weather packets the latest 10 day(s).
| Time | Temp. | Humidity | Pressure | Rain* | Wind** | Luminosity | Snow |
|---|---|---|---|---|---|---|---|
| 1787972751 | 17.22° C | 81% | 986.2 hPa | 2.03 mm | 5.81 m/s, 221° | - | - |
| 1787972150 | 17.22° C | 82% | 986.3 hPa | 2.03 mm | 4.02 m/s, 224° | - | - |
| 1787971549 | 17.22° C | 82% | 985.8 hPa | 2.03 mm | 0.89 m/s, 209° | - | - |
| 1787970948 | 17.22° C | 83% | 986.2 hPa | 2.03 mm | 3.13 m/s, 225° | - | - |
| 1787970347 | 16.67° C | 84% | 986.1 hPa | 2.03 mm | 0.89 m/s, 223° | - | - |
| 1787969746 | 16.67° C | 85% | 985.8 hPa | 2.03 mm | 0.89 m/s, 220° | - | - |
| 1787969145 | 16.67° C | 84% | 985.7 hPa | 2.03 mm | 1.34 m/s, 272° | - | - |
| 1787968544 | 16.67° C | 84% | 986.1 hPa | 2.03 mm | 0 m/s | - | - |
| 1787967943 | 16.67° C | 84% | 986.4 hPa | 2.03 mm | 0.45 m/s, 252° | - | - |
| 1787967342 | 16.67° C | 85% | 986.6 hPa | 2.03 mm | 3.58 m/s, 15° | - | - |
| 1787966742 | 16.67° C | 85% | 986.1 hPa | 2.03 mm | 6.26 m/s, 162° | - | - |
| 1787966141 | 16.67° C | 84% | 986.1 hPa | 2.03 mm | 1.34 m/s, 47° | - | - |
| 1787965540 | 16.67° C | 84% | 986 hPa | 2.03 mm | 5.36 m/s, 213° | - | - |
| 1787964939 | 16.67° C | 86% | 986.1 hPa | 2.03 mm | 2.68 m/s, 281° | - | - |
| 1787964338 | 16.67° C | 85% | 985.9 hPa | 1.78 mm | 0.89 m/s, 75° | - | - |
| 1787963737 | 16.67° C | 84% | 986.4 hPa | 1.78 mm | 2.68 m/s, 142° | - | - |
| 1787963136 | 17.22° C | 84% | 986.4 hPa | 1.52 mm | 10.28 m/s, 134° | - | - |
| 1787962535 | 17.22° C | 83% | 986.4 hPa | 1.52 mm | 3.58 m/s, 256° | - | - |
| 1787961934 | 17.22° C | 84% | 986.5 hPa | 1.27 mm | 2.68 m/s, 159° | - | - |
| 1787961333 | 17.78° C | 84% | 986 hPa | 1.27 mm | 5.36 m/s, 134° | - | - |
| 1787960732 | 18.33° C | 84% | 986.2 hPa | 0.76 mm | 0.45 m/s, 169° | - | - |
| 1787960131 | 18.33° C | 84% | 986.1 hPa | 0.76 mm | 0 m/s | - | - |
| 1787959530 | 18.89° C | 82% | 986.4 hPa | 0.76 mm | 1.79 m/s, 102° | - | - |
| 1787958929 | 19.44° C | 79% | 986.8 hPa | 0.51 mm | 3.58 m/s, 244° | - | - |
| 1787958328 | 19.44° C | 80% | 986.3 hPa | 0.51 mm | 0.45 m/s, 232° | - | - |
* Rain since midnight (hover to see other rain measurements)
** Current wind speed in m/s (hover to see current wind gust speed)